Torna al catalogo

STARLINK-34154

AttivoComunicazioniVLEO
NORAD 63995·PAYLOAD·🇺🇸 United States

Lanciato May 14, 2025 da Cape Canaveral Space Force Station

Loading…

Prossimi Passaggi (prossime 24 ore)

TLE

AggiornatoSource: CelesTrak SupGP

Epoca: Sep 15, 2026, 02:56 UTC

1 63995C 25101B   26258.12270833  .00022066  00000+0  79905-3 0  2586
2 63995  43.0040   8.0969 0001724 270.2350 216.3255 15.27573895    17

Traccia STARLINK-34154 in tempo reale con AllMySat

Download on the App Store